EW0734 Weather Reports


time (UTC)temp
F
wind
direction
speed
knots
gust
knots
rain 1hr
in
rain 24hr
in
rain mn
in
humidity
%
barometer
mb
20260502164024 58 0.0 2.6 0.00 0.00 0.00 47 1012.7
20260502163024 58 0.0 1.7 0.00 0.00 0.00 46 1013.0
20260502162024 58 0.0 2.6 0.00 0.00 0.00 48 1012.9
20260502161025 57 270 0.9 2.6 0.00 0.00 0.00 51 1013.1
20260502152024 56 0.0 0.9 0.00 0.00 0.00 53 1013.1
20260502151024 55 0.0 3.5 0.00 0.00 0.00 55 1013.4
20260502123025 49 270 0.9 4.3 0.00 0.00 0.00 67 1013.0
20260502122026 49 0.0 1.7 0.00 0.00 0.00 70 1013.0
20260502121025 48 270 0.9 3.5 0.00 0.00 0.00 68 1012.9
20260502115025 49 0.0 2.6 0.00 0.00 0.00 70 1012.8
20260502114025 48 0.0 2.6 0.00 0.00 0.00 71 1012.8
20260502113025 48 0.0 2.6 0.00 0.00 0.00 70 1012.9
20260502112026 48 0.0 5.2 0.00 0.00 0.00 71 1012.9
20260502111026 48 0.0 0.9 0.00 0.00 0.00 72 1012.8
20260502110025 49 0.0 0.9 0.00 0.00 0.00 72 1012.8
20260502105029 0 0.0 0.0 0.00 0.00 0.00
20260502104006 0 0.0 0.0 0.00 0.00 0.00
20260502103622 0 0.0 0.0 0.00 0.00 0.00
20260502103027 0 0.0 0.0 0.00 0.00 0.00
20260502102529 0 0.0 0.0 0.00 0.00 0.00
20260502101524 0 0.0 0.0 0.00 0.00 0.00
20260502101222 0 0.0 0.0 0.00 0.00 0.00
20260502091024 0 0.0 0.0 0.00 0.00 0.00
20260502071025 49 0.0 0.9 0.00 0.00 0.00 85 1011.0
20260502070026 50 0.0 0.0 0.00 0.00 0.00 85 1010.8
20260502065045 50 0.0 0.0 0.00 0.00 0.00 85 1010.9
20260502064025 51 0.0 0.0 0.00 0.00 0.00 84 1011.1
20260502063045 51 0.0 0.0 0.00 0.00 0.00 83 1011.1
20260502062206 52 0.0 0.0 0.00 0.00 0.00 82 1011.1
20260502061044 52 0.0 0.0 0.00 0.00 0.00 81 1011.3
20260502060025 52 0.0 0.0 0.00 0.00 0.00 80 1011.6
20260502055024 53 0.0 0.0 0.00 0.00 0.00 79 1011.6
20260502054026 54 0.0 0.0 0.00 0.00 0.00 77 1011.4
20260502053045 54 0.0 0.0 0.00 0.00 0.00 76 1011.5
20260502052024 54 0.0 0.0 0.00 0.00 0.00 75 1011.5
20260502051024 54 0.0 1.7 0.00 0.00 0.00 73 1011.3
20260502050024 54 0.0 0.0 0.00 0.00 0.00 72 1011.4
20260502045024 54 0.0 0.0 0.00 0.00 0.00 71 1011.2
20260502044024 53 0.0 0.9 0.00 0.00 0.00 71 1011.2
20260502043025 53 0.0 0.0 0.00 0.00 0.00 73 1011.3
20260502042025 53 0.0 0.0 0.00 0.00 0.00 72 1011.3
20260502041025 52 0.0 0.0 0.00 0.00 0.00 71 1011.3
20260502040030 52 0.0 0.0 0.00 0.00 0.00 72 1011.0
20260502035024 52 0.0 0.0 0.00 0.00 0.00 72 1010.7
20260502034026 52 0.0 0.0 0.00 0.00 0.00 72 1010.3
20260502033025 51 0.0 0.0 0.00 0.00 0.00 72 1010.3
20260502032025 51 0.0 0.0 0.00 0.00 0.00 72 1010.2
20260502031029 51 0.0 0.0 0.00 0.00 0.00 72 1010.0
20260502030024 51 0.0 0.0 0.00 0.00 0.00 71 1009.9
20260502025025 51 0.0 0.0 0.00 0.00 0.00 70 1009.7
20260502024045 52 0.0 0.0 0.00 0.00 0.00 70 1009.8
20260502023026 52 0.0 0.0 0.00 0.00 0.00 70 1009.7
20260502022045 52 0.0 0.0 0.00 0.00 0.00 70 1009.7
20260502021044 52 0.0 0.0 0.00 0.00 0.00 68 1009.8
20260502020024 53 0.0 0.0 0.00 0.00 0.00 67 1009.8
20260502015026 53 0.0 0.0 0.00 0.00 0.00 65 1009.7
20260502014024 53 0.0 0.0 0.00 0.00 0.00 64 1009.7
20260502013026 54 0.0 0.0 0.00 0.00 0.00 65 1009.6
20260502012045 54 0.0 0.0 0.00 0.00 0.00 63 1009.6
20260502011025 55 0.0 0.0 0.00 0.00 0.00 63 1009.4
20260502010105 55 0.0 0.0 0.00 0.00 0.00 61 1009.2
20260502005024 56 0.0 0.0 0.00 0.00 0.00 59 1009.0
20260502004025 56 0.0 0.0 0.00 0.00 0.00 58 1008.7
20260502003025 57 0.0 0.0 0.00 0.00 0.00 56 1008.6
20260502002024 59 0.0 0.0 0.00 0.00 0.00 56 1008.5
20260502001025 60 0.0 0.0 0.00 0.00 0.00 52 1008.6
20260502000024 61 0.0 0.0 0.00 0.00 0.00 49 1008.6
20260501235031 63 0.0 0.9 0.00 0.00 0.00 47 1008.5
20260501234025 64 0.0 0.9 0.00 0.00 0.00 45 1008.5
20260501233024 65 0.0 2.6 0.00 0.00 0.00 42 1008.5
20260501232024 65 0.0 2.6 0.00 0.00 0.00 42 1008.4
20260501231024 65 0.0 2.6 0.00 0.00 0.00 41 1008.5
20260501230024 66 0.0 1.7 0.00 0.00 0.00 40 1008.5
20260501225024 66 0.0 2.6 0.00 0.00 0.00 39 1008.6
20260501224045 66 135 0.9 3.5 0.00 0.00 0.00 38 1008.7
20260501223024 66 0.0 1.7 0.00 0.00 0.00 39 1008.6
20260501222025 67 135 0.9 5.2 0.00 0.00 0.00 38 1008.7
20260501221024 67 0.0 0.9 0.00 0.00 0.00 37 1008.9
20260501220024 67 135 0.9 3.5 0.00 0.00 0.00 35 1008.9
20260501215025 68 0.0 1.7 0.00 0.00 0.00 36 1008.9
20260501214024 68 135 0.9 3.5 0.00 0.00 0.00 34 1009.0
20260501213025 68 0.0 2.6 0.00 0.00 0.00 38 1009.1
20260501212025 68 180 1.7 6.1 0.00 0.00 0.00 34 1009.1
20260501211025 68 180 1.7 4.3 0.00 0.00 0.00 35 1009.3
20260501210024 68 203 0.9 3.5 0.00 0.00 0.00 36 1009.3
20260501205025 68 203 0.9 3.5 0.00 0.00 0.00 34 1009.3
20260501204104 69 0.0 4.3 0.00 0.00 0.00 36 1009.2
20260501203024 70 203 1.7 5.2 0.00 0.00 0.00 33 1009.3
20260501202029 70 0.0 1.7 0.00 0.00 0.00 36 1009.4
20260501201024 70 0.0 2.6 0.00 0.00 0.00 38 1009.7
20260501200104 70 203 0.9 3.5 0.00 0.00 0.00 32 1009.9
20260501195024 71 203 0.9 3.5 0.00 0.00 0.00 33 1010.0
20260501194024 71 0.0 2.6 0.00 0.00 0.00 35 1010.2
20260501193024 71 203 0.9 3.5 0.00 0.00 0.00 39 1010.5
20260501192025 70 0.0 1.7 0.00 0.00 0.00 37 1010.7
20260501191024 70 0.0 1.7 0.00 0.00 0.00 35 1011.0
20260501190024 70 0.0 1.7 0.00 0.00 0.00 35 1011.0
20260501185044 71 0.0 3.5 0.00 0.00 0.00 37 1011.1
20260501184024 69 0.0 1.7 0.00 0.00 0.00 38 1011.3
20260501183024 68 180 0.9 5.2 0.00 0.00 0.00 38 1011.6
20260501182025 70 203 0.9 7.8 0.00 0.00 0.00 34 1011.4
20260501181024 69 203 0.9 2.6 0.00 0.00 0.00 37 1011.6
20260501180045 69 0.0 1.7 0.00 0.00 0.00 39 1011.8